Regional Weather Roundup
Issued by NWS

Home | Current Version | Previous Version | Graphics & Text | Print | Product List | Glossary On
Versions: 1 2 3 4 5 6 7 8 9 10 11 12 13 14 15 16 17 18 19 20 21 22 23 24 25 26 27 28 29 30 31 32 33 34 35 36 37 38 39 40 41 42 43 44 45 46 47 48 49 50
000
ASUS43 KMPX 182010
RWRMN
WEATHER ROUNDUP FOR MINNESOTA
NATIONAL WEATHER SERVICE TWIN CITIES/CHANHASSEN MN
200 PM CST WED JAN 18 2017


NOTE: "FAIR" INDICATES FEW OR NO CLOUDS BELOW 12,000 FEET WITH NO
SIGNIFICANT WEATHER AND/OR OBSTRUCTIONS TO VISIBILITY. N/A MEANS
CURRENT SKY AND/OR WEATHER CONDITIONS ARE NOT AVAILABLE.

MNZ060>063-068>070-182100-
   Twin Cities Metro

CITY           SKY/WX    TMP DP  RH WIND       PRES   REMARKS
TWIN CITIES    SUNNY     40  30  67 SW8       29.86F
ST PAUL        SUNNY     40  31  70 S12       29.88S
CRYSTAL        SUNNY     39  28  64 S13       29.84F
BLAINE         SUNNY     41  30  65 S12       29.85S
LAKEVILLE      SUNNY     37  32  81 S9        29.86F
EDEN PRAIRIE   SUNNY     38  30  73 S14       29.85F
SOUTH ST PAUL  SUNNY     41  31  68 S6        29.87S
LAKE ELMO      FAIR      37  32  81 S12       29.87S
$$
MNZ001>005-007-008-013>017-022>024-027-028-182100-
   Northwest Minnesota

CITY           SKY/WX    TMP DP  RH WIND       PRES   REMARKS
BEMIDJI        SUNNY     40  27  60 CALM      29.71S
HALLOCK        CLOUDY    28  25  86 SE15      29.65F WCI  17
ROSEAU         CLOUDY    34  27  75 S7        29.68F WCI  28
WARROAD        CLOUDY    34  27  75 CALM      29.68F
THIEF RVR FALL CLOUDY    34  23  64 S9        29.70F WCI  27
CROOKSTON      CLOUDY    28  23  80 S8        29.71S WCI  20
FOSSTON        CLOUDY    36  23  60 S9        29.70F
DETROIT LAKES  SUNNY     37  27  65 S9        29.73F
MOORHEAD       SUNNY     32  25  74 S12       29.73F WCI  23
PARK RAPIDS    SUNNY     37  25  61 S7        29.72F
MAHNOMEN       FAIR      35  26  69 S12       29.71S WCI  26
$$
MNZ006-009>011-018-025>026-182100-
   North Central Minnesota

CITY           SKY/WX    TMP DP  RH WIND       PRES   REMARKS
BAUDETTE       CLOUDY    36  23  59 SE5       29.70F
FLAG ISLAND    CLOUDY    27  21  80 SE9       29.68F WCI  17
INTL FALLS     CLOUDY    38  24  57 VRB3      29.73F
WASKISH        CLOUDY    39  27  60 CALM      29.71F
BIG FORK       CLOUDY    41  25  52 CALM      29.73S
LONGVILLE      SUNNY     45  25  45 S3        29.74S
GRAND RAPIDS   SUNNY     42  25  50 S5        29.76S
CRANE LAKE     SUNNY     36  23  60 CALM      29.76F
ORR            CLOUDY    39  21  48 CALM      29.71F
COOK           CLOUDY    39  25  56 CALM      29.74F
WALKER         FAIR      42  26  54 S5        29.72S
$$
MNZ012-019>021-037-182100-
   Northeast Minnesota

CITY           SKY/WX    TMP DP  RH WIND       PRES   REMARKS
DULUTH         SUNNY     39  27  62 SW9       29.76S
ELY            SUNNY     37  25  60 CALM      29.74S
HIBBING        SUNNY     39  24  55 W7        29.75R
EVELETH        SUNNY     40  26  57 SW6       29.76R
DULUTH HARBOR  SUNNY     39  28  65 CALM      29.79S
TWO HARBORS    SUNNY     45  30  57 SW10      29.74R
SILVER BAY     SUNNY     48  28  46 SW3       29.73R
GRAND MARAIS     N/A     38  32  79 SW18      29.76R
G MARAIS ARPRT SUNNY     39  25  56 W3        29.72R
$$
MNZ029>031-032-039>041-046>048-054>057-064-182100-
   West Central Minnesota

CITY           SKY/WX    TMP DP  RH WIND       PRES   REMARKS
FERGUS FALLS   SUNNY     36  27  69 SE7       29.78F
WHEATON        SUNNY     41  36  81 SE10      29.76F
MORRIS         SUNNY     36  28  75 SE12      29.76S
ALEXANDRIA     SUNNY     37  26  64 SE7       29.77S
ELBOW LAKE     FAIR      34  27  76 E8        29.75F HAZE    WCI  27
WADENA         SUNNY     39  25  56 S3        29.74F
GLENWOOD       SUNNY     36  27  69 S7        29.78S
APPLETON       SUNNY     39  27  60 S5        29.78S
ORTONVILLE     SUNNY     39  28  65 CALM      29.76S
MADISON        SUNNY     41  30  65 S10       29.77F
WILLMAR        FAIR      37  30  75 CALM      29.82F
$$
MNZ033>034-036-042>043-049>051-058-059-182100-
   Central Minnesota

CITY           SKY/WX    TMP DP  RH WIND       PRES   REMARKS
ST CLOUD       SUNNY     37  29  72 S7        29.82R
SAUK CENTRE    FAIR      35  28  75 SE6       29.79S WCI  30
PAYNESVILLE    SUNNY     36  28  73 S10       29.81F
AITKIN         SUNNY     43  21  42 S5        29.76S
PINE RIVER     SUNNY     39  27  60 S5        29.79S
BRAINERD       SUNNY     36  25  64 S7        29.77F
STAPLES        SUNNY     37  25  60 S6        29.75F
LONG PRAIRIE   FAIR      36  28  75 SE5       29.79R
LITTLE FALLS   SUNNY     37  27  65 S6        29.80
LITCHFIELD     SUNNY     39  30  70 CALM      29.82F
BUFFALO        SUNNY     38  29  70 S8        29.84F
MAPLE LAKE     SUNNY     39  31  73 S8        29.84S
HUTCHINSON     CLOUDY    37  33  82 S5        29.84S
$$
MNZ037-044-045-052-053-182100-
   East Central Minnesota

CITY           SKY/WX    TMP DP  RH WIND       PRES   REMARKS
PRINCETON      SUNNY     41  28  60 S7        29.83S
MORA           SUNNY     37  27  65 SW6       29.84S
CAMBRIDGE      SUNNY     41  28  60 S7        29.82S
RUSH CITY      SUNNY     41  28  60 SW6       29.84S
MOOSE LAKE     SUNNY     37  27  65 S6        29.78S
HINCKLEY       FAIR      37  30  75 S8        29.82S
CLOQUET        SUNNY     37  25  60 S8        29.77S
MCGREGOR       SUNNY     37  28  70 S7        29.78S
$$
MNZ071>073-080-081-089-090-097-098-182100-
   Southwest Minnesota

CITY           SKY/WX    TMP DP  RH WIND       PRES   REMARKS
MONTEVIDEO       N/A    N/A N/A N/A MISG        N/A
GRANITE FALLS  SUNNY     39  32  75 S10       29.82F
CANBY            N/A     43  27  52 CALM      29.78F
MARSHALL       SUNNY     41  30  65 SW10      29.80F
REDWOOD FALLS  SUNNY     38  31  76 S10       29.82F
OLIVIA         SUNNY     37  32  81 S10       29.81F
PIPESTONE      SUNNY     37  34  87 S9        29.81F
WINDOM         SUNNY     39  34  81 SW13      29.83F
WORTHINGTON    SUNNY     39  33  79 SW16      29.82F
JACKSON        SUNNY     37  32  81 SW15      29.84F
TRACY          SUNNY     40  33  76 SW18      29.80F
SLAYTON        SUNNY     37  32  84 S9        29.83F
$$
MNZ065>067-074>077-082>085-091>093-182100-
   South Central Minnesota

CITY           SKY/WX    TMP DP  RH WIND       PRES   REMARKS
MANKATO        SUNNY     39  33  79 S7        29.86F
NEW ULM        SUNNY     37  34  87 S7        29.84F
ST JAMES       SUNNY     39  36  87 S8        29.86F
FAIRMONT       SUNNY     39  34  82 S14       29.85
GLENCOE        SUNNY     38  34  85 S7        29.84S
FARIBAULT      SUNNY     39  32  75 S10G16    29.88F
OWATONNA       SUNNY     37  30  75 S12       29.88F
WASECA         SUNNY     36  32  87 S12       29.89F
ALBERT LEA     SUNNY     39  34  81 S9        29.88F
$$
MNZ078>079-086>088-094>096-182100-
   Southeast Minnesota

CITY           SKY/WX    TMP DP  RH WIND       PRES   REMARKS
ROCHESTER      CLOUDY    31  31 100 S21       29.90F FOG     WCI  18
RED WING       SUNNY     37  30  75 S7        29.90F
STANTON        SUNNY     38  32  78 S6        29.87F
DODGE CENTER   SUNNY     34  30  86 S14       29.89S FOG     WCI  24
WINONA           N/A     37  32  81 S5        29.95S
AUSTIN         PTSUNNY   34  30  86 S16       29.90F FOG     WCI  23
PRESTON        CLOUDY    31  30  94 S20       29.91F FOG     WCI  19
$$
ABBREVIATIONS USED IN REMARKS
   TC - TEMPERATURES IN CELSIUS
  WCI - WIND CHILL INDEX
   HX - HEAT INDEX
  VSB - VISIBILITY
$$




USA.gov is the U.S. government's official web portal to all federal, state and local government web resources and services.